DW7918 Weather Reports


Display with metric or nautical units.
time (UTC)temp
F
wind
direction
speed
MPH
gust
MPH
rain 1hr
in
rain 24hr
in
rain mn
in
humidity
%
barometer
mb
20260502162204 44 67 3.0 7.0 0.00 0.01 0.00 40 1018.9
20260502162004 44 67 4.0 7.0 0.00 0.01 0.00 39 1018.9
20260502161804 44 51 4.0 9.0 0.00 0.01 0.00 39 1018.9
20260502161604 44 54 3.0 9.0 0.00 0.01 0.00 40 1018.9
20260502161404 44 51 3.0 9.0 0.00 0.01 0.00 42 1019.0
20260502161204 44 42 3.0 9.0 0.00 0.01 0.00 43 1018.9
20260502161025 44 45 3.0 9.0 0.00 0.01 0.00 42 1018.9
20260502160804 44 81 3.0 8.0 0.00 0.01 0.00 39 1018.9
20260502160604 44 83 4.0 8.0 0.00 0.01 0.00 38 1019.0
20260502160425 44 89 4.0 8.0 0.00 0.01 0.00 38 1019.0
20260502160204 44 106 4.0 8.0 0.00 0.01 0.00 39 1019.0
20260502152204 44 136 3.0 8.0 0.00 0.01 0.00 40 1019.0
20260502152004 43 125 4.0 8.0 0.00 0.01 0.00 39 1019.1
20260502151805 43 107 4.0 8.0 0.00 0.01 0.00 44 1019.0
20260502151604 43 110 4.0 8.0 0.00 0.01 0.00 44 1019.0
20260502151405 43 107 4.0 8.0 0.00 0.01 0.00 40 1019.0
20260502151204 42 94 4.0 8.0 0.00 0.01 0.00 42 1019.0
20260502151005 42 89 3.0 8.0 0.00 0.01 0.00 44 1019.0
20260502150804 42 79 3.0 7.0 0.00 0.01 0.00 45 1019.0
20260502150604 42 67 4.0 7.0 0.00 0.01 0.00 43 1019.0
20260502150426 42 60 3.0 7.0 0.00 0.01 0.00 43 1019.0
20260502150226 42 56 3.0 7.0 0.00 0.01 0.00 47 1019.0
20260502130605 38 99 3.0 7.0 0.00 0.01 0.00 57 1019.0
20260502130404 38 97 4.0 7.0 0.00 0.01 0.00 57 1019.0
20260502130205 38 96 4.0 8.0 0.00 0.01 0.00 56 1018.9
20260502123804 38 101 3.0 6.0 0.00 0.01 0.00 58 1018.9
20260502123604 37 96 3.0 7.0 0.00 0.01 0.00 58 1018.9
20260502123405 37 93 3.0 7.0 0.00 0.01 0.00 59 1018.9
20260502123204 37 90 2.0 7.0 0.00 0.01 0.00 59 1018.9
20260502123005 37 92 2.0 7.0 0.00 0.01 0.00 59 1018.9
20260502122804 37 93 2.0 7.0 0.00 0.01 0.00 59 1018.9
20260502122604 37 99 2.0 5.0 0.00 0.01 0.00 59 1018.9
20260502122404 37 99 2.0 5.0 0.00 0.01 0.00 59 1018.9
20260502122205 37 101 1.0 4.0 0.00 0.01 0.00 59 1018.9
20260502122004 37 103 2.0 4.0 0.00 0.01 0.00 59 1018.9
20260502121805 37 100 1.0 5.0 0.00 0.01 0.00 59 1018.8
20260502121605 36 92 2.0 5.0 0.00 0.01 0.00 59 1018.8
20260502121404 36 92 2.0 5.0 0.00 0.01 0.00 59 1018.8
20260502121204 36 95 2.0 5.0 0.00 0.01 0.00 59 1018.8
20260502121005 36 95 2.0 5.0 0.00 0.01 0.00 59 1018.8
20260502120804 36 100 2.0 5.0 0.00 0.01 0.00 59 1018.7
20260502120604 36 102 2.0 5.0 0.00 0.01 0.00 60 1018.7
20260502120404 36 98 2.0 5.0 0.00 0.01 0.00 60 1018.8
20260502120204 36 95 2.0 4.0 0.00 0.01 0.00 60 1018.7
20260502115825 35 91 2.0 4.0 0.00 0.01 0.00 60 1018.7
20260502115604 35 89 2.0 4.0 0.00 0.01 0.00 60 1018.7
20260502115404 35 91 2.0 4.0 0.00 0.01 0.00 60 1018.6
20260502115205 35 91 2.0 4.0 0.00 0.01 0.00 60 1018.6
20260502115025 35 93 2.0 4.0 0.00 0.01 0.00 61 1018.6
20260502114804 35 92 2.0 5.0 0.00 0.01 0.00 61 1018.6
20260502114605 35 91 2.0 5.0 0.00 0.01 0.00 61 1018.6
20260502114404 34 93 2.0 5.0 0.00 0.01 0.00 61 1018.6
20260502114205 34 94 2.0 5.0 0.00 0.01 0.00 61 1018.6
20260502114004 34 94 2.0 6.0 0.00 0.01 0.00 61 1018.6
20260502113805 34 92 2.0 6.0 0.00 0.01 0.00 61 1018.6
20260502113604 34 92 3.0 6.0 0.00 0.01 0.00 61 1018.6
20260502113405 34 92 2.0 6.0 0.00 0.01 0.00 62 1018.5
20260502113205 34 94 2.0 6.0 0.00 0.01 0.00 62 1018.5
20260502113004 34 94 2.0 5.0 0.00 0.01 0.00 62 1018.4
20260502112805 33 97 1.0 4.0 0.00 0.01 0.00 63 1018.4
20260502112605 33 98 1.0 3.0 0.00 0.01 0.00 63 1018.4
20260502112404 33 98 1.0 3.0 0.00 0.01 0.00 64 1018.4
20260502112204 33 93 0.0 3.0 0.00 0.01 0.00 64 1018.4
20260502112004 32 92 0.0 3.0 0.00 0.01 0.00 64 1018.3
20260502111804 32 93 0.0 3.0 0.00 0.01 0.00 65 1018.3
20260502111605 32 102 0.0 2.0 0.00 0.01 0.00 65 1018.3
20260502111425 32 102 0.0 2.0 0.00 0.01 0.00 65 1018.3
20260502111205 32 0 0.0 0.0 0.00 0.01 0.00 65 1018.4
20260502111025 32 0 0.0 0.0 0.00 0.01 0.00 65 1018.3
20260502110805 32 0 0.0 0.0 0.00 0.01 0.00 65 1018.3
20260502110604 32 0 0.0 0.0 0.00 0.01 0.00 65 1018.3
20260502110426 32 0 0.0 0.0 0.00 0.01 0.00 65 1018.3
20260502110225 32 0 0.0 0.0 0.00 0.01 0.00 65 1018.3
20260502110026 32 0 0.0 0.0 0.00 0.01 0.00 65 1018.3
20260502105804 32 0 0.0 0.0 0.00 0.01 0.00 65 1018.2
20260502105604 32 0 0.0 0.0 0.00 0.01 0.00 65 1018.2
20260502105425 32 0 0.0 0.0 0.00 0.01 0.00 66 1018.2
20260502105205 32 0 0.0 0.0 0.00 0.01 0.00 66 1018.2
20260502105024 32 0 0.0 0.0 0.00 0.01 0.00 66 1018.2
20260502104805 32 0 0.0 0.0 0.00 0.01 0.00 66 1018.3
20260502104604 31 0 0.0 0.0 0.00 0.01 0.00 66 1018.3
20260502104404 31 0 0.0 0.0 0.00 0.01 0.00 66 1018.3
20260502104204 31 0 0.0 0.0 0.00 0.01 0.00 66 1018.3
20260502104005 31 0 0.0 0.0 0.00 0.01 0.00 66 1018.3
20260502103804 31 0 0.0 0.0 0.00 0.01 0.00 66 1018.3
20260502103604 31 0 0.0 0.0 0.00 0.01 0.00 66 1018.3
20260502103405 31 0 0.0 0.0 0.00 0.01 0.00 66 1018.3
20260502103204 31 0 0.0 0.0 0.00 0.01 0.00 66 1018.3
20260502103026 31 0 0.0 0.0 0.00 0.01 0.00 66 1018.3
20260502102804 31 0 0.0 0.0 0.00 0.01 0.00 66 1018.3
20260502102605 31 0 0.0 0.0 0.00 0.01 0.00 66 1018.2
20260502102404 31 0 0.0 0.0 0.00 0.01 0.00 66 1018.2
20260502102204 31 0 0.0 0.0 0.00 0.01 0.00 66 1018.3
20260502102004 31 0 0.0 0.0 0.00 0.01 0.00 66 1018.2
20260502101826 31 0 0.0 0.0 0.00 0.01 0.00 65 1018.2
20260502101605 31 0 0.0 0.0 0.00 0.01 0.00 65 1018.2
20260502101404 31 0 0.0 0.0 0.00 0.01 0.00 65 1018.2
20260502101205 31 0 0.0 0.0 0.00 0.01 0.00 65 1018.2
20260502101004 31 0 0.0 0.0 0.00 0.01 0.00 65 1018.2
20260502100804 32 0 0.0 0.0 0.00 0.01 0.00 65 1018.2
20260502100605 32 0 0.0 0.0 0.00 0.01 0.00 65 1018.2
20260502100405 32 0 0.0 0.0 0.00 0.01 0.00 65 1018.2
20260502100204 32 0 0.0 0.0 0.00 0.01 0.00 65 1018.2
20260502091405 32 0 0.0 0.0 0.00 0.01 0.00 65 1018.0
20260502091204 32 0 0.0 0.0 0.00 0.01 0.00 65 1018.0
20260502091004 32 0 0.0 0.0 0.00 0.01 0.00 66 1017.9
20260502090804 31 0 0.0 0.0 0.00 0.01 0.00 65 1017.9
20260502090605 31 0 0.0 0.0 0.00 0.01 0.00 66 1018.0
20260502090426 31 0 0.0 0.0 0.00 0.01 0.00 65 1018.0
20260502090205 31 0 0.0 0.0 0.00 0.01 0.00 65 1017.9
20260502071405 32 0 0.0 0.0 0.00 0.01 0.00 65 1017.8
20260502071204 32 0 0.0 0.0 0.00 0.01 0.00 65 1017.8
20260502071004 32 0 0.0 0.0 0.00 0.01 0.00 64 1017.8
20260502070804 32 0 0.0 0.0 0.00 0.01 0.00 64 1017.8
20260502070605 32 0 0.0 0.0 0.00 0.01 0.00 64 1017.8
20260502070405 32 0 0.0 0.0 0.00 0.01 0.00 64 1017.8
20260502070226 32 0 0.0 0.0 0.00 0.01 0.00 64 1017.7
20260502070004 32 0 0.0 0.0 0.00 0.01 0.00 64 1017.6
20260502065805 32 0 0.0 0.0 0.00 0.01 0.00 64 1017.7
20260502065604 32 0 0.0 0.0 0.00 0.01 0.00 64 1017.7
20260502065405 32 0 0.0 0.0 0.00 0.01 0.00 64 1017.8
20260502065204 32 0 0.0 0.0 0.00 0.01 0.00 64 1017.7
20260502065004 32 0 0.0 0.0 0.00 0.01 0.00 64 1017.8
20260502064804 32 0 0.0 0.0 0.00 0.01 0.00 64 1017.7
20260502064626 32 0 0.0 0.0 0.00 0.01 0.00 64 1017.8
20260502064404 32 0 0.0 0.0 0.00 0.01 0.00 64 1017.8
20260502064204 32 0 0.0 0.0 0.00 0.01 0.00 64 1017.8
20260502064004 32 0 0.0 0.0 0.00 0.01 0.00 64 1017.8
20260502063805 32 0 0.0 0.0 0.00 0.02 0.00 64 1017.8
20260502063604 32 0 0.0 0.0 0.00 0.02 0.00 64 1017.9
20260502063404 32 0 0.0 0.0 0.00 0.02 0.00 64 1017.9
20260502063225 32 0 0.0 0.0 0.00 0.02 0.00 64 1017.9
20260502063004 32 0 0.0 0.0 0.00 0.02 0.00 64 1018.0
20260502062805 32 0 0.0 0.0 0.00 0.02 0.00 64 1018.0
20260502062604 32 0 0.0 0.0 0.00 0.02 0.00 64 1018.0
20260502062425 32 0 0.0 0.0 0.00 0.02 0.00 64 1018.0
20260502062225 32 0 0.0 0.0 0.00 0.02 0.00 64 1018.0
20260502062005 33 0 0.0 0.0 0.00 0.02 0.00 64 1018.0
20260502061805 33 0 0.0 0.0 0.00 0.02 0.00 63 1017.9
20260502061605 33 98 0.0 3.0 0.00 0.02 0.00 64 1018.0
20260502061404 32 98 0.0 3.0 0.00 0.02 0.00 64 1017.9
20260502061204 33 98 0.0 3.0 0.00 0.02 0.00 64 1018.0
20260502061005 32 98 0.0 3.0 0.00 0.03 0.00 64 1018.0
20260502060804 32 98 0.0 3.0 0.00 0.03 0.00 64 1018.0
20260502060605 32 96 0.0 1.0 0.00 0.03 0.00 64 1018.0
20260502060404 32 0 0.0 0.0 0.00 0.03 0.00 64 1018.0
20260502060205 32 0 0.0 0.0 0.00 0.03 0.00 64 1018.0
20260502060004 32 0 0.0 0.0 0.00 0.03 0.00 64 1018.1
20260502055805 32 0 0.0 0.0 0.00 0.03 0.00 64 1018.1
20260502055604 32 0 0.0 0.0 0.00 0.03 0.00 64 1018.1
20260502055405 32 0 0.0 0.0 0.00 0.03 0.00 64 1018.1
20260502055204 32 0 0.0 0.0 0.00 0.04 0.00 64 1018.2
20260502055005 32 0 0.0 0.0 0.00 0.04 0.00 64 1018.2
20260502054804 32 0 0.0 0.0 0.00 0.04 0.00 64 1018.2
20260502054605 32 0 0.0 0.0 0.00 0.04 0.00 64 1018.2
20260502054405 32 0 0.0 0.0 0.00 0.04 0.00 64 1018.2
20260502054205 33 0 0.0 0.0 0.00 0.04 0.00 64 1018.2
20260502054004 33 0 0.0 0.0 0.00 0.04 0.00 64 1018.1
20260502053805 33 0 0.0 0.0 0.00 0.04 0.00 64 1018.1
20260502053604 33 0 0.0 0.0 0.00 0.04 0.00 64 1018.1
20260502053405 33 0 0.0 0.0 0.00 0.04 0.00 64 1018.2
20260502053204 33 0 0.0 0.0 0.00 0.04 0.00 63 1018.2
20260502053004 33 0 0.0 0.0 0.00 0.04 0.00 64 1018.2
20260502052825 33 0 0.0 0.0 0.00 0.04 0.00 64 1018.2
20260502052604 33 88 0.0 1.0 0.00 0.04 0.00 64 1018.1
20260502052405 33 88 0.0 1.0 0.00 0.04 0.00 64 1018.1
20260502052204 33 88 0.0 1.0 0.00 0.04 0.00 64 1018.1
20260502052005 33 88 0.0 1.0 0.00 0.04 0.00 64 1018.1
20260502051804 33 88 0.0 1.0 0.00 0.04 0.00 63 1018.1
20260502051605 33 88 0.0 1.0 0.00 0.04 0.00 63 1018.1
20260502051404 33 88 0.0 1.0 0.00 0.04 0.00 63 1018.1
20260502051205 33 0 0.0 1.0 0.00 0.04 0.00 63 1018.1
20260502051004 33 0 0.0 0.0 0.00 0.04 0.00 63 1018.1
20260502050804 33 0 0.0 0.0 0.00 0.04 0.00 63 1018.1
20260502050604 33 0 0.0 0.0 0.00 0.04 0.00 63 1018.1
20260502050426 33 0 0.0 0.0 0.00 0.04 0.00 63 1018.1
20260502050205 34 0 0.0 0.0 0.00 0.04 0.00 63 1018.1
20260502050004 34 0 0.0 0.0 0.00 0.04 0.00 62 1018.1
20260502045804 34 88 0.0 1.0 0.00 0.04 0.00 62 1018.1
20260502045605 34 88 0.0 1.0 0.00 0.04 0.00 62 1018.1
20260502045404 34 88 0.0 2.0 0.00 0.04 0.00 62 1018.1
20260502045204 34 88 0.0 2.0 0.00 0.04 0.00 61 1018.1
20260502045005 34 88 0.0 2.0 0.00 0.04 0.00 62 1018.1
20260502044804 34 87 1.0 3.0 0.00 0.04 0.00 61 1018.1
20260502044605 35 82 1.0 3.0 0.00 0.04 0.00 61 1018.1
20260502044424 35 81 1.0 3.0 0.00 0.05 0.00 61 1018.0
20260502044204 35 86 1.0 3.0 0.00 0.05 0.00 61 1018.1
20260502044004 35 96 1.0 5.0 0.00 0.05 0.00 61 1018.0
20260502043804 35 91 1.0 5.0 0.00 0.05 0.00 61 1018.0
20260502043605 35 93 2.0 6.0 0.00 0.05 0.00 61 1018.0
20260502043404 35 90 2.0 6.0 0.00 0.05 0.00 60 1018.0
20260502043224 35 82 2.0 6.0 0.00 0.05 0.00 60 1018.0
20260502043005 35 71 2.0 6.0 0.00 0.05 0.00 60 1018.0
20260502042804 35 73 2.0 6.0 0.00 0.06 0.00 60 1018.0
20260502042604 35 77 2.0 6.0 0.00 0.06 0.00 60 1017.9
20260502042403 35 74 2.0 5.0 0.00 0.06 0.00 60 1018.0
20260502042205 35 77 2.0 5.0 0.00 0.06 0.00 60 1018.0
20260502042026 35 72 2.0 5.0 0.00 0.06 0.00 60 1018.0
20260502041804 35 68 3.0 5.0 0.00 0.06 0.00 60 1017.9
20260502041625 35 59 3.0 5.0 0.00 0.06 0.00 60 1018.0
20260502041405 35 55 3.0 5.0 0.00 0.06 0.00 60 1017.9
20260502041225 35 54 3.0 5.0 0.00 0.06 0.00 60 1017.9
20260502041025 35 62 3.0 5.0 0.00 0.06 0.00 60 1018.0
20260502040804 35 67 2.0 5.0 0.00 0.07 0.00 59 1017.9
20260502040625 36 70 2.0 5.0 0.00 0.07 0.00 60 1017.9
20260502040425 36 72 2.0 5.0 0.00 0.08 0.00 59 1017.9
20260502040205 36 62 3.0 5.0 0.00 0.08 0.00 59 1017.9
20260502040005 36 51 2.0 5.0 0.00 0.08 0.00 59 1017.9
20260502035805 36 44 3.0 6.0 0.00 0.08 0.08 59 1017.9
20260502035604 36 43 3.0 6.0 0.00 0.08 0.08 59 1017.8
20260502035426 36 45 3.0 6.0 0.00 0.08 0.08 59 1017.8
20260502035204 36 54 2.0 6.0 0.00 0.08 0.08 59 1017.9
20260502035005 36 63 3.0 6.0 0.00 0.08 0.08 59 1017.8
20260502034804 36 69 3.0 6.0 0.00 0.08 0.08 59 1017.7
20260502034604 36 72 3.0 6.0 0.00 0.08 0.08 59 1017.8
20260502034405 36 70 3.0 6.0 0.00 0.08 0.08 59 1017.8
20260502034225 36 68 3.0 6.0 0.00 0.08 0.08 59 1017.7
20260502034004 36 60 3.0 6.0 0.00 0.08 0.08 59 1017.7
20260502033804 35 53 3.0 6.0 0.00 0.08 0.08 59 1017.7
20260502033605 35 47 2.0 6.0 0.00 0.09 0.08 59 1017.7
20260502033404 35 41 2.0 6.0 0.00 0.09 0.08 59 1017.6
20260502033205 35 41 2.0 6.0 0.00 0.09 0.08 59 1017.6
20260502033004 35 41 2.0 5.0 0.00 0.09 0.08 59 1017.6
20260502032805 35 40 2.0 5.0 0.00 0.09 0.08 59 1017.6
20260502032605 35 42 2.0 5.0 0.00 0.09 0.08 59 1017.5
20260502032404 35 45 2.0 5.0 0.00 0.09 0.08 59 1017.6
20260502032226 35 44 2.0 5.0 0.00 0.09 0.08 59 1017.6
20260502032005 35 41 2.0 5.0 0.00 0.09 0.08 59 1017.6
20260502031825 35 41 2.0 6.0 0.00 0.09 0.08 58 1017.6
20260502031605 35 37 2.0 6.0 0.00 0.09 0.08 59 1017.5
20260502031404 35 37 2.0 6.0 0.00 0.10 0.08 58 1017.5
20260502031205 35 34 2.0 6.0 0.00 0.10 0.08 58 1017.5
20260502031025 35 31 2.0 6.0 0.00 0.10 0.08 58 1017.5
20260502030804 35 32 2.0 5.0 0.00 0.10 0.08 58 1017.4
20260502030605 35 38 1.0 4.0 0.00 0.10 0.08 58 1017.5
20260502030405 35 33 2.0 4.0 0.00 0.10 0.08 58 1017.5
20260502030204 35 30 2.0 4.0 0.00 0.10 0.08 58 1017.4
20260502030004 35 33 2.0 4.0 0.00 0.10 0.08 57 1017.5
20260502025804 35 27 2.0 4.0 0.00 0.11 0.08 58 1017.4
20260502025604 35 22 2.0 4.0 0.00 0.11 0.08 57 1017.4
20260502025404 35 22 2.0 4.0 0.00 0.11 0.08 58 1017.5
20260502025225 35 26 2.0 5.0 0.00 0.12 0.08 58 1017.5
20260502025004 35 25 2.0 5.0 0.00 0.12 0.08 58 1017.5
20260502024826 35 22 3.0 5.0 0.00 0.12 0.08 58 1017.5
20260502024625 35 23 3.0 5.0 0.00 0.12 0.08 57 1017.5
20260502024404 35 22 2.0 5.0 0.00 0.12 0.08 57 1017.5
20260502024204 35 20 2.0 5.0 0.00 0.13 0.08 57 1017.6
20260502024004 35 14 2.0 5.0 0.00 0.13 0.08 58 1017.5
20260502023804 35 14 2.0 5.0 0.00 0.13 0.08 58 1017.5
20260502023625 35 13 2.0 5.0 0.00 0.14 0.08 58 1017.5
20260502023404 35 16 2.0 5.0 0.00 0.14 0.08 57 1017.5
20260502023204 36 22 2.0 5.0 0.00 0.14 0.08 57 1017.4
20260502023004 36 25 2.0 5.0 0.00 0.14 0.08 56 1017.4
20260502022804 36 30 2.0 5.0 0.00 0.15 0.08 56 1017.4
20260502022604 36 35 2.0 5.0 0.00 0.15 0.08 55 1017.4
20260502022405 36 32 2.0 5.0 0.00 0.15 0.08 53 1017.4
20260502022205 36 30 2.0 5.0 0.00 0.16 0.08 54 1017.4
20260502022004 36 37 2.0 5.0 0.00 0.16 0.08 54 1017.4
20260502021804 36 37 2.0 4.0 0.00 0.16 0.08 54 1017.3
20260502021604 36 38 2.0 4.0 0.00 0.16 0.08 54 1017.3
20260502021404 36 40 2.0 4.0 0.00 0.17 0.08 54 1017.3
20260502021205 36 40 1.0 4.0 0.00 0.17 0.08 53 1017.3
20260502021025 36 37 1.0 4.0 0.00 0.17 0.08 54 1017.3
20260502020826 36 40 1.0 3.0 0.00 0.17 0.08 54 1017.2
20260502020604 37 42 1.0 4.0 0.00 0.17 0.08 52 1017.2
20260502020405 37 36 2.0 5.0 0.00 0.17 0.08 53 1017.2
20260502020204 37 36 2.0 5.0 0.00 0.17 0.08 52 1017.2
20260502020004 37 45 2.0 5.0 0.00 0.17 0.08 51 1017.2
20260502015803 37 48 2.0 5.0 0.00 0.18 0.08 50 1017.2
20260502015604 37 53 2.0 5.0 0.00 0.18 0.08 50 1017.2
20260502015404 37 60 2.0 6.0 0.00 0.18 0.08 50 1017.2
20260502015225 37 65 2.0 6.0 0.00 0.18 0.08 50 1017.2
20260502015003 37 58 3.0 6.0 0.00 0.18 0.08 49 1017.2
20260502014804 38 54 3.0 7.0 0.00 0.18 0.08 49 1017.1
20260502014625 38 52 3.0 7.0 0.00 0.18 0.08 48 1017.1
20260502014404 38 49 3.0 7.0 0.00 0.18 0.08 48 1017.1
20260502014204 38 45 4.0 9.0 0.00 0.18 0.08 48 1017.1
20260502014025 38 48 4.0 9.0 0.00 0.18 0.08 48 1017.1
20260502013805 38 48 5.0 9.0 0.00 0.19 0.08 48 1017.1
20260502013605 38 52 5.0 12.0 0.00 0.19 0.08 47 1017.1
20260502013405 38 55 6.0 12.0 0.00 0.19 0.08 47 1017.0
20260502013206 38 55 5.0 12.0 0.00 0.19 0.08 47 1016.9
20260502013004 38 49 6.0 12.0 0.00 0.19 0.08 46 1016.8
20260502012804 38 49 5.0 12.0 0.00 0.19 0.08 46 1016.8
20260502012603 39 45 5.0 11.0 0.00 0.19 0.08 46 1016.8
20260502012405 39 40 5.0 11.0 0.00 0.19 0.08 48 1016.7
20260502012204 39 41 5.0 11.0 0.00 0.19 0.08 47 1016.8
20260502012005 39 41 5.0 11.0 0.00 0.19 0.08 49 1016.7
20260502011804 39 39 5.0 10.0 0.00 0.19 0.08 49 1016.7
20260502011604 39 42 5.0 9.0 0.00 0.19 0.08 50 1016.7
20260502011405 39 43 5.0 10.0 0.00 0.19 0.08 50 1016.6
20260502011225 39 36 5.0 10.0 0.00 0.20 0.08 51 1016.6
20260502011005 40 41 5.0 10.0 0.00 0.20 0.08 51 1016.6
20260502010804 40 49 5.0 10.0 0.00 0.20 0.08 52 1016.6
20260502010605 40 43 5.0 10.0 0.00 0.20 0.08 51 1016.6
20260502010405 40 38 5.0 10.0 0.00 0.20 0.08 50 1016.6
20260502010205 40 36 5.0 10.0 0.00 0.20 0.08 51 1016.6
20260502010005 40 34 5.0 10.0 0.00 0.20 0.08 51 1016.5
20260502005825 40 25 5.0 10.0 0.00 0.20 0.08 51 1016.5
20260502005605 40 20 5.0 10.0 0.00 0.20 0.08 51 1016.5
20260502005404 40 17 4.0 7.0 0.00 0.20 0.08 52 1016.4
20260502005205 40 17 4.0 7.0 0.00 0.20 0.08 52 1016.4
20260502005025 40 13 4.0 8.0 0.00 0.20 0.08 52 1016.4
20260502004805 40 15 4.0 8.0 0.00 0.20 0.08 52 1016.4
20260502004604 40 15 3.0 8.0 0.00 0.20 0.08 53 1016.4
20260502004405 40 15 4.0 8.0 0.00 0.20 0.08 52 1016.4
20260502004204 40 14 4.0 8.0 0.00 0.20 0.08 52 1016.3
20260502004004 40 10 4.0 8.0 0.00 0.21 0.08 51 1016.3
20260502003804 41 4 5.0 11.0 0.00 0.21 0.08 52 1016.3
20260502003604 41 7 5.0 11.0 0.00 0.21 0.08 51 1016.3
20260502003404 41 7 5.0 11.0 0.00 0.21 0.08 50 1016.3
20260502003225 42 10 5.0 11.0 0.00 0.21 0.08 49 1016.3
20260502003005 42 16 4.0 11.0 0.00 0.21 0.08 47 1016.3
20260502002804 42 21 4.0 8.0 0.00 0.21 0.08 48 1016.3
20260502002604 42 21 4.0 8.0 0.00 0.21 0.08 46 1016.2
20260502002404 42 23 4.0 10.0 0.00 0.21 0.08 46 1016.3
20260502002205 43 19 4.0 10.0 0.00 0.21 0.08 47 1016.2
20260502002004 43 17 4.0 10.0 0.00 0.22 0.08 45 1016.2
20260502001805 43 23 4.0 10.0 0.00 0.22 0.08 45 1016.2
20260502001625 44 31 4.0 10.0 0.00 0.22 0.08 44 1016.2
20260502001405 44 41 4.0 8.0 0.00 0.22 0.08 43 1016.2
20260502001204 44 53 4.0 8.0 0.00 0.22 0.08 43 1016.1
20260502001005 44 65 4.0 8.0 0.00 0.22 0.08 41 1016.1
20260502000805 44 75 5.0 8.0 0.00 0.22 0.08 40 1016.0
20260502000605 44 73 4.0 7.0 0.00 0.22 0.08 39 1016.0
20260502000425 44 80 4.0 7.0 0.00 0.22 0.08 38 1015.9
20260502000204 44 87 4.0 7.0 0.00 0.22 0.08 40 1016.0
20260502000005 44 89 4.0 9.0 0.00 0.22 0.08 38 1015.9
20260501235804 44 88 4.0 10.0 0.00 0.22 0.08 42 1016.1
20260501235605 44 92 5.0 13.0 0.00 0.22 0.08 42 1015.9
20260501235404 44 87 6.0 13.0 0.00 0.22 0.08 42 1015.9
20260501235205 44 83 6.0 13.0 0.00 0.22 0.08 43 1015.9
20260501235004 44 84 6.0 13.0 0.00 0.22 0.08 43 1015.9
20260501234805 44 84 7.0 18.0 0.00 0.22 0.08 41 1015.9
20260501234625 44 73 7.0 18.0 0.00 0.22 0.08 43 1015.9
20260501234405 44 70 7.0 18.0 0.00 0.22 0.08 42 1015.9
20260501234204 44 71 6.0 18.0 0.00 0.22 0.08 41 1015.9
20260501234004 45 66 6.0 18.0 0.00 0.22 0.08 41 1015.9
20260501233806 45 64 6.0 17.0 0.00 0.22 0.08 41 1015.9
20260501233605 45 70 6.0 14.0 0.00 0.22 0.08 42 1015.9
20260501233405 45 70 6.0 13.0 0.00 0.22 0.08 44 1015.7
20260501233204 45 70 7.0 16.0 0.00 0.22 0.08 43 1015.7
20260501233005 45 72 7.0 16.0 0.00 0.22 0.08 42 1015.7
20260501232805 45 64 8.0 16.0 0.00 0.22 0.08 42 1015.7
20260501232604 45 53 8.0 16.0 0.00 0.22 0.08 41 1015.7
20260501232405 45 47 8.0 16.0 0.00 0.22 0.08 41 1015.7
20260501232205 45 45 7.0 15.0 0.00 0.22 0.08 41 1015.6
20260501232004 45 43 7.0 15.0 0.00 0.22 0.08 39 1015.7
20260501231805 45 39 7.0 15.0 0.00 0.22 0.08 39 1015.6
20260501231626 45 40 7.0 15.0 0.00 0.22 0.08 40 1015.6
20260501231405 46 41 7.0 11.0 0.00 0.22 0.08 41 1015.6
20260501231226 46 31 7.0 14.0 0.00 0.22 0.08 42 1015.6
20260501231005 46 26 8.0 14.0 0.00 0.22 0.08 40 1015.6
20260501230804 46 29 8.0 14.0 0.00 0.22 0.08 39 1015.6
20260501230604 46 35 8.0 14.0 0.00 0.22 0.08 41 1015.6
20260501230404 46 44 8.0 14.0 0.00 0.22 0.08 40 1015.6
20260501230205 46 55 8.0 14.0 0.00 0.22 0.08 40 1015.6
20260501230005 46 58 8.0 14.0 0.00 0.22 0.08 38 1015.6
20260501225805 46 56 7.0 14.0 0.00 0.22 0.08 40 1015.6
20260501225626 46 59 7.0 14.0 0.00 0.22 0.08 37 1015.6
20260501225405 46 56 7.0 14.0 0.00 0.22 0.08 39 1015.6
20260501225205 47 59 6.0 14.0 0.00 0.22 0.08 39 1015.6
20260501225005 47 67 7.0 14.0 0.00 0.22 0.08 40 1015.6
20260501224826 47 77 7.0 14.0 0.00 0.22 0.08 40 1015.6
20260501224604 47 84 8.0 16.0 0.00 0.22 0.08 39 1015.5
20260501224404 47 89 8.0 22.0 0.00 0.22 0.08 39 1015.6
20260501224204 47 86 7.0 22.0 0.00 0.22 0.08 36 1015.6
20260501224005 47 83 7.0 22.0 0.00 0.22 0.08 38 1015.6
20260501223804 47 75 6.0 22.0 0.00 0.22 0.08 36 1015.5
20260501223604 47 70 5.0 22.0 0.00 0.22 0.08 40 1015.6
20260501223404 47 62 5.0 13.0 0.00 0.22 0.08 44 1015.7
20260501223204 46 60 5.0 13.0 0.00 0.22 0.08 46 1015.6
20260501223005 46 47 6.0 13.0 0.00 0.22 0.08 44 1015.7
20260501222805 46 45 6.0 13.0 0.00 0.22 0.08 43 1015.6
20260501222604 46 32 5.0 13.0 0.00 0.22 0.08 43 1015.6
20260501222404 46 24 5.0 10.0 0.00 0.22 0.08 46 1015.6
20260501222225 46 20 5.0 10.0 0.00 0.22 0.08 43 1015.6
20260501222004 46 35 5.0 9.0 0.00 0.22 0.08 46 1015.6
20260501221805 46 37 5.0 9.0 0.00 0.22 0.08 45 1015.6
20260501221604 46 45 5.0 9.0 0.00 0.22 0.08 45 1015.6
20260501221425 46 51 5.0 9.0 0.00 0.22 0.08 48 1015.6
20260501221205 46 55 5.0 9.0 0.00 0.22 0.08 43 1015.6
20260501221005 46 47 5.0 10.0 0.00 0.22 0.08 45 1015.6
20260501220804 46 54 4.0 10.0 0.00 0.22 0.08 44 1015.6
20260501220605 46 48 4.0 10.0 0.00 0.22 0.08 45 1015.5
20260501220426 46 48 4.0 10.0 0.00 0.22 0.08 46 1015.5
20260501220205 46 35 4.0 10.0 0.00 0.22 0.08 45 1015.6
20260501220025 46 40 4.0 10.0 0.00 0.22 0.08 47 1015.6
20260501215805 46 35 5.0 12.0 0.00 0.22 0.08 47 1015.6
20260501215625 46 31 6.0 12.0 0.00 0.22 0.08 48 1015.6
20260501215404 46 33 6.0 12.0 0.00 0.22 0.08 47 1015.5
20260501215205 46 33 7.0 14.0 0.00 0.22 0.08 47 1015.6
20260501215004 46 28 7.0 14.0 0.00 0.22 0.08 45 1015.6
20260501214805 46 23 7.0 14.0 0.00 0.22 0.08 46 1015.6
20260501214604 47 30 7.0 14.0 0.00 0.22 0.08 46 1015.5
20260501214426 47 25 8.0 14.0 0.00 0.22 0.08 45 1015.5
20260501214204 47 19 8.0 13.0 0.00 0.22 0.08 45 1015.5
20260501214005 48 21 7.0 13.0 0.00 0.22 0.08 46 1015.5
20260501213804 48 28 7.0 13.0 0.00 0.22 0.08 48 1015.4
20260501213625 48 30 7.0 14.0 0.00 0.22 0.08 50 1015.4
20260501213425 48 31 6.0 14.0 0.00 0.22 0.08 47 1015.4
20260501213205 48 44 5.0 14.0 0.00 0.22 0.08 49 1015.4
20260501213004 47 56 5.0 14.0 0.00 0.22 0.08 49 1015.3
20260501212826 46 58 5.0 14.0 0.00 0.22 0.08 51 1015.3
20260501212604 46 49 5.0 9.0 0.00 0.22 0.08 50 1015.3
20260501212405 46 50 5.0 9.0 0.00 0.22 0.08 49 1015.3
20260501212204 46 48 5.0 11.0 0.00 0.22 0.08 49 1015.4
20260501212004 46 47 5.0 11.0 0.00 0.22 0.08 50 1015.4
20260501211804 47 50 5.0 11.0 0.00 0.22 0.08 49 1015.4
20260501211625 47 57 5.0 11.0 0.00 0.22 0.08 50 1015.4
20260501211426 47 53 5.0 11.0 0.00 0.22 0.08 51 1015.3
20260501211205 47 54 6.0 12.0 0.00 0.22 0.08 48 1015.3
20260501211005 47 48 7.0 16.0 0.00 0.22 0.08 50 1015.3
20260501210805 47 46 7.0 16.0 0.00 0.22 0.08 48 1015.3
20260501210625 48 44 7.0 16.0 0.00 0.22 0.08 47 1015.3
20260501210404 48 47 8.0 16.0 0.00 0.22 0.08 47 1015.2
20260501210204 48 52 7.0 16.0 0.00 0.22 0.08 47 1015.2
20260501210004 48 48 8.0 14.0 0.00 0.22 0.08 51 1015.2
20260501205804 48 37 8.0 14.0 0.00 0.22 0.08 50 1015.2
20260501205605 47 33 7.0 14.0 0.00 0.22 0.08 50 1015.1
20260501205426 47 33 7.0 14.0 0.00 0.22 0.08 51 1015.1
20260501205205 47 29 5.0 13.0 0.00 0.22 0.08 51 1015.1
20260501205004 47 47 4.0 13.0 0.00 0.22 0.08 51 1015.1
20260501204826 46 65 4.0 8.0 0.00 0.22 0.08 50 1015.1
20260501204625 46 67 4.0 10.0 0.00 0.22 0.08 50 1015.1
20260501204405 46 60 4.0 10.0 0.00 0.22 0.08 48 1015.1
20260501204204 46 62 5.0 16.0 0.00 0.22 0.08 48 1015.1
20260501204005 46 56 5.0 16.0 0.00 0.22 0.08 49 1015.1
20260501203804 46 53 6.0 16.0 0.00 0.22 0.08 51 1015.2
20260501203604 46 54 6.0 16.0 0.00 0.22 0.08 50 1015.2
20260501203405 46 53 6.0 16.0 0.00 0.22 0.08 50 1015.3
20260501203205 46 44 6.0 10.0 0.00 0.22 0.08 50 1015.2
20260501203004 46 45 5.0 10.0 0.00 0.22 0.08 52 1015.3
20260501202805 46 47 5.0 10.0 0.00 0.22 0.08 51 1015.3
20260501202604 46 56 5.0 12.0 0.00 0.22 0.08 51 1015.3
20260501202405 46 67 6.0 12.0 0.00 0.22 0.08 51 1015.3
20260501202204 46 84 5.0 12.0 0.00 0.22 0.08 52 1015.2
20260501202004 46 90 6.0 13.0 0.00 0.22 0.08 53 1015.3
20260501201805 46 93 6.0 13.0 0.00 0.22 0.08 50 1015.2
20260501201625 46 91 6.0 13.0 0.00 0.22 0.08 51 1015.3
20260501201404 46 81 6.0 13.0 0.00 0.22 0.08 50 1015.3
20260501201204 46 79 5.0 13.0 0.00 0.22 0.08 49 1015.3
20260501201004 46 75 5.0 10.0 0.00 0.22 0.08 52 1015.4
20260501200805 46 82 4.0 9.0 0.00 0.22 0.08 54 1015.3
20260501200605 46 94 4.0 10.0 0.00 0.22 0.08 54 1015.4
20260501200404 46 102 4.0 10.0 0.00 0.22 0.08 51 1015.3
20260501200205 46 101 5.0 10.0 0.00 0.22 0.08 50 1015.3
20260501200005 46 94 5.0 10.0 0.00 0.22 0.08 51 1015.3
20260501195826 46 87 5.0 10.0 0.00 0.22 0.08 52 1015.3
20260501195605 46 80 5.0 10.0 0.00 0.22 0.08 53 1015.3
20260501195425 45 74 5.0 10.0 0.00 0.22 0.08 53 1015.3
20260501195205 45 58 5.0 10.0 0.00 0.22 0.08 54 1015.3
20260501195004 45 45 5.0 8.0 0.00 0.22 0.08 55 1015.4
20260501194804 45 41 5.0 8.0 0.00 0.22 0.08 53 1015.4
20260501194604 45 37 4.0 7.0 0.00 0.22 0.08 55 1015.4
20260501194405 45 39 5.0 11.0 0.00 0.22 0.08 54 1015.4
20260501194204 45 46 5.0 11.0 0.00 0.22 0.08 54 1015.3
20260501194005 45 60 5.0 11.0 0.00 0.22 0.08 55 1015.4
20260501193804 45 68 5.0 11.0 0.00 0.22 0.08 54 1015.4
20260501193605 45 74 6.0 11.0 0.00 0.22 0.08 54 1015.3
20260501193404 45 80 6.0 11.0 0.00 0.22 0.08 53 1015.4
20260501193205 45 82 6.0 11.0 0.00 0.22 0.08 52 1015.3
20260501193004 45 81 6.0 11.0 0.00 0.22 0.08 52 1015.3
20260501192804 45 79 6.0 11.0 0.00 0.22 0.08 53 1015.2
20260501192605 45 78 6.0 11.0 0.00 0.22 0.08 51 1015.3
20260501192403 46 80 6.0 12.0 0.00 0.22 0.08 53 1015.3
20260501192204 46 82 6.0 13.0 0.00 0.22 0.08 55 1015.2
20260501192004 46 86 6.0 13.0 0.00 0.22 0.08 53 1015.2
20260501191804 46 88 6.0 13.0 0.00 0.22 0.08 51 1015.1
20260501191604 46 82 6.0 13.0 0.00 0.22 0.08 51 1015.1
20260501191404 46 72 6.0 13.0 0.00 0.22 0.08 51 1015.1
20260501191205 46 71 5.0 10.0 0.00 0.22 0.08 51 1015.0
20260501191004 46 67 5.0 9.0 0.00 0.22 0.08 52 1015.0
20260501190805 46 68 5.0 10.0 0.00 0.22 0.08 53 1015.0
20260501190604 46 72 5.0 11.0 0.00 0.22 0.08 51 1015.0
20260501190405 46 75 5.0 11.0 0.00 0.22 0.08 52 1014.9
20260501190204 46 79 6.0 11.0 0.00 0.22 0.08 51 1014.9
20260501190004 46 79 6.0 11.0 0.00 0.22 0.08 51 1014.8
20260501185805 46 79 6.0 16.0 0.00 0.22 0.08 50 1014.8
20260501185605 47 72 6.0 16.0 0.00 0.22 0.08 50 1014.8
20260501185404 47 63 5.0 16.0 0.00 0.22 0.08 48 1014.8
20260501185205 47 49 4.0 16.0 0.00 0.22 0.08 48 1014.7
20260501185004 47 32 4.0 16.0 0.00 0.22 0.08 48 1014.7
20260501184804 48 6 4.0 6.0 0.00 0.22 0.08 48 1014.7
20260501184625 48 2 4.0 8.0 0.00 0.22 0.08 46 1014.6
20260501184404 48 5 4.0 8.0 0.00 0.22 0.08 50 1014.6
20260501184204 47 5 4.0 8.0 0.00 0.22 0.08 48 1014.6
20260501184004 47 10 4.0 9.0 0.00 0.22 0.08 48 1014.6
20260501183805 47 19 4.0 9.0 0.00 0.22 0.08 48 1014.5
20260501183626 47 27 4.0 9.0 0.00 0.22 0.08 49 1014.5
20260501183404 47 30 4.0 11.0 0.00 0.22 0.08 50 1014.5
20260501183204 47 27 4.0 11.0 0.00 0.22 0.08 50 1014.6
20260501183004 47 31 4.0 11.0 0.00 0.22 0.08 51 1014.5
20260501182805 47 40 4.0 11.0 0.00 0.22 0.08 50 1014.5
20260501182605 47 55 4.0 11.0 0.00 0.22 0.08 49 1014.5
20260501182405 47 72 4.0 10.0 0.00 0.22 0.08 50 1014.6
20260501182205 48 86 3.0 10.0 0.00 0.22 0.08 51 1014.5
20260501182005 48 87 3.0 10.0 0.00 0.22 0.08 48 1014.5
20260501181805 48 86 4.0 10.0 0.00 0.22 0.08 49 1014.5
20260501181605 48 86 4.0 10.0 0.00 0.22 0.08 49 1014.5
20260501181405 48 84 4.0 12.0 0.00 0.22 0.08 49 1014.4
20260501181205 48 84 5.0 12.0 0.00 0.22 0.08 47 1014.4
20260501181004 49 72 5.0 12.0 0.00 0.22 0.08 47 1014.4
20260501180805 49 64 4.0 12.0 0.00 0.22 0.08 48 1014.4
20260501180605 49 57 4.0 12.0 0.00 0.22 0.08 48 1014.3
20260501180405 50 50 3.0 8.0 0.00 0.22 0.08 49 1014.3
20260501180225 49 49 3.0 8.0 0.00 0.22 0.08 48 1014.3
20260501180004 49 78 3.0 8.0 0.01 0.22 0.08 48 1014.3
20260501175804 49 85 3.0 8.0 0.01 0.22 0.08 51 1014.4
20260501175604 48 96 3.0 8.0 0.01 0.22 0.08 52 1014.3
20260501175405 48 95 4.0 9.0 0.01 0.22 0.08 51 1014.4
20260501175204 47 94 4.0 10.0 0.01 0.22 0.08 50 1014.5
20260501175004 47 94 4.0 10.0 0.01 0.22 0.08 49 1014.4
20260501174804 47 89 5.0 14.0 0.01 0.22 0.08 49 1014.4
20260501174605 47 81 6.0 14.0 0.01 0.22 0.08 50 1014.5
20260501174404 48 81 5.0 14.0 0.01 0.22 0.08 47 1014.5
20260501174204 48 82 5.0 14.0 0.01 0.22 0.08 48 1014.5
20260501174004 48 88 6.0 14.0 0.01 0.22 0.08 49 1014.4
20260501173805 48 91 6.0 10.0 0.01 0.22 0.08 51 1014.4
20260501173604 48 95 6.0 11.0 0.01 0.22 0.08 47 1014.3
20260501173426 48 93 6.0 12.0 0.01 0.22 0.08 45 1014.4
20260501173204 48 83 7.0 12.0 0.01 0.22 0.08 47 1014.4
20260501173004 48 72 6.0 12.0 0.01 0.22 0.08 48 1014.4
20260501172805 48 71 6.0 12.0 0.01 0.22 0.08 47 1014.4
20260501172404 48 67 5.0 12.0 0.01 0.22 0.08 49 1014.4
20260501172005 48 85 4.0 10.0 0.01 0.22 0.08 48 1014.3
20260501171804 48 94 3.0 10.0 0.01 0.22 0.08 48 1014.3
20260501171605 48 89 4.0 10.0 0.01 0.22 0.08 49 1014.3
20260501171404 49 82 4.0 11.0 0.01 0.22 0.08 47 1014.3
20260501171205 49 62 4.0 11.0 0.01 0.22 0.08 47 1014.3
20260501171005 49 51 5.0 11.0 0.01 0.22 0.08 46 1014.2
20260501170804 49 45 5.0 11.0 0.01 0.22 0.08 49 1014.3
20260501170605 49 46 5.0 11.0 0.01 0.22 0.08 52 1014.3
20260501170405 48 41 4.0 9.0 0.01 0.22 0.08 50 1014.2
20260501170204 48 55 4.0 9.0 0.01 0.22 0.08 52 1014.3
20260501170005 48 64 4.0 9.0 0.00 0.21 0.07 49 1014.4
20260501165805 48 76 4.0 9.0 0.00 0.21 0.07 50 1014.3
20260501165625 47 74 4.0 9.0 0.00 0.21 0.07 48 1014.3
20260501165404 47 86 4.0 9.0 0.00 0.21 0.07 47 1014.3
20260501165204 48 81 4.0 9.0 0.00 0.21 0.07 47 1014.3
20260501165004 48 73 4.0 9.0 0.00 0.21 0.07 47 1014.3
20260501164805 48 66 4.0 7.0 0.00 0.21 0.07 48 1014.2
20260501164604 48 64 3.0 7.0 0.00 0.21 0.07 51 1014.3
20260501164404 48 55 3.0 7.0 0.00 0.21 0.07 52 1014.3
20260501164205 48 64 3.0 7.0 0.00 0.21 0.07 50 1014.2
20260501164004 48 76 3.0 7.0 0.00 0.21 0.07 50 1014.2
20260501163805 48 81 4.0 11.0 0.00 0.21 0.07 49 1014.2
20260501163604 47 80 4.0 11.0 0.00 0.21 0.07 50 1014.3
20260501163404 47 84 5.0 11.0 0.00 0.21 0.07 50 1014.3
20260501163204 47 85 4.0 11.0 0.00 0.21 0.07 50 1014.3
20260501163003 47 92 4.0 11.0 0.00 0.21 0.07 51 1014.3
20260501162804 47 108 4.0 10.0 0.00 0.21 0.07 51 1014.3
20260501162605 48 131 3.0 10.0 0.00 0.21 0.07 50 1014.2
20260501162404 48 130 3.0 10.0 0.00 0.21 0.07 51 1014.3